Skip Page Navigation
NASA JPL Caltech
NASA Logo - Jet Propulsion Laboratory + View the NASA Portal
+ Center for Near-Earth Object Studies
JPL Home Earth Solar System Stars & Galaxies Technology
JPL Solar System Dynamics
BODIES ORBITS EPHEMERIDES TOOLS PHYSICAL DATA DISCOVERY FAQ SITE MAP
JPL Small-Body Database Browser
Search: [ help ]  
6357 Glushko (1976 SK3)
Classification: Main-belt Asteroid          SPK-ID: 2006357
Ephemeris | Orbit Diagram | Orbital Elements | Mission Design | Physical Parameters | Discovery Circumstances | Close-Approach Data ]

[ hide orbit diagram ]

For accurate long-term ephemerides, please instead use our Horizons system.This orbit viewer was implemented using two-body methods, and hence should not be used for determining accurate long-term trajectories (over several years or decades) or planetary encounter circumstances.


Orbital Elements at Epoch 2459396.5 (2021-Jul-01.0) TDB
Reference: JPL 46 (heliocentric ecliptic J2000)
 Element Value Uncertainty (1-sigma)   Units 
e .07680684595273969 2.0502e-08  
a 2.999457043427606 1.4424e-08 au
q 2.769078208351202 6.6083e-08 au
i 10.38387469027785 8.4962e-07 deg
node 14.24763148121984 6.4388e-06 deg
peri 286.5055449890298 1.4983e-05 deg
M 278.4599080738966 1.4884e-05 deg
tp 2459826.265048491966
(2022-Sep-03.76504849)
7.8966e-05 TDB
period 1897.415293538305
5.19
1.3686e-05
3.747e-08
d
yr
n .1897317899913576 1.3686e-09 deg/d
Q 3.22983587850401 1.5532e-08 au
  Orbit Determination Parameters
   # obs. used (total)      2948  
   data-arc span      16346 days (44.75 yr)  
   first obs. used      1976-09-24  
   last obs. used      2021-06-26  
   planetary ephem.      DE441  
   SB-pert. ephem.      SB441-N16  
   condition code      0  
   norm. resid. RMS      .45323  
   source      ORB  
   producer      Otto Matic  
   solution date      2021-Jul-08 00:31:17  

Additional Information
 Earth MOID = 1.77683 au 
 Jupiter MOID = 1.9942 au 
 T_jup = 3.224 
[ hide covariance matrix ]
Orbital Elements at Epoch 2457575.5 (2016-Jul-06.0) TDB
Reference: JPL 46 (heliocentric ecliptic J2000)
 Element Value Uncertainty (1-sigma)   Units 
e .07598809934209491 2.0639e-08  
q 2.772064010520929 6.6395e-08 au
tp 2457923.017823704924
(2017-Jun-18.51782370)
7.7413e-05 TDB
node 14.27823538314812 6.4383e-06 deg
peri 285.5584072782127 1.4969e-05 deg
i 10.3836918969415 8.4945e-07 deg
  Orbit Determination Parameters
   # obs. used (total)      2948  
   data-arc span      16346 days (44.75 yr)  
   first obs. used      1976-09-24  
   last obs. used      2021-06-26  
   planetary ephem.      DE441  
   SB-pert. ephem.      SB441-N16  
   condition code      0  
   norm. resid. RMS      .45323  
   source      ORB  
   producer      Otto Matic  
   solution date      2021-Jul-08 00:31:17  

Additional Information
 Jupiter MOID = 1.9942 au 
 T_jup = 3.224 
Orbit Covariance (6×6)
  e q tp node peri i
e 4.259624538050405E-16 -1.3444804568549E-15 -1.015113662155457E-12 -1.083383486807906E-14 -1.385612337533847E-13 1.624118415198176E-15
q -1.3444804568549E-15 4.408333482183022E-15 3.055614510640765E-12 3.291208843547085E-14 4.021086938802761E-13 -5.025899621844521E-15
tp -1.015113662155457E-12 3.055614510640765E-12 5.992709505063794E-9 -7.190495194156979E-11 1.045058746930041E-9 4.576645372090327E-12
node -1.083383486807906E-14 3.291208843547085E-14 -7.190495194156979E-11 4.145210121068878E-11 -5.266552277512413E-11 -5.201127716510083E-12
peri -1.385612337533847E-13 4.021086938802761E-13 1.045058746930041E-9 -5.266552277512413E-11 2.240851484681183E-10 5.784148915806888E-12
i 1.624118415198176E-15 -5.025899621844521E-15 4.576645372090327E-12 -5.201127716510083E-12 5.784148915806888E-12 7.215664726912675E-13

Ephemeris | Orbit Diagram | Orbital Elements | Mission Design | Physical Parameters | Discovery Circumstances | Close-Approach Data ]

Physical Parameter Table
Parameter Symbol Value Units Sigma Reference Notes
absolute magnitude H 12.46   n/a MPCxxxxx  
diameter diameter 10.981 km 0.267 urn:nasa:pds:neowise_diameters_albedos::2.0[mainbelt] (http://adsabs.harvard.edu/abs/2011ApJ...741...68M)  
geometric albedo albedo 0.193   0.033 urn:nasa:pds:neowise_diameters_albedos::2.0[mainbelt] (http://adsabs.harvard.edu/abs/2011ApJ...741...68M)  

6357 Glushko (1976 SK3)          Discovered 1976-Sep-24 by Chernykh, N. S. at Nauchnyj
Reference: DISCOVERY.DBLast Updated: 2003-08-29

[ hide close-approach data ]
Close-Approach Data   ...sorted by Date/Time (TDB)
Date/Time (TDB) Time Uncertainty
(days_HH:MM)
Body Nominal Distance (au) Minimum Distance (au) Maximum Distance (au) V-relative (km/s) V-infinity (km/s) JD (TDB) Time Uncertainty (minutes) Semi-major axis (km) Semi-minor axis (km) range-LOV angle (deg) N-sigma BP Orbit Ref. Reference Modified
1940-Dec-10 03:34 00:02 Jupiter 1.97812763926798 1.97812745146034 1.97812782707562 4.04242751366275 3.93507713737316 2429973.648450620 1.553090937345 18.2659676989174 10.226630953504 -88.7681128339964 5080150.74526248 T 46 CATAB v2.0g-lin.ifort 2021-Jul-08 00:32:24 2021-Jul-08 00:32
2024-Feb-21 20:36 < 00:01 Jupiter 1.99228923832065 1.99228904225103 1.99228943439026 3.88784551980346 3.77690905920811 2460362.358111721 0.250135332538035 16.5826640372561 7.39015721240816 -71.8244075908857 10703393.9680352 T 46 CATAB v2.0g-lin.ifort 2021-Jul-08 00:32:24 2021-Jul-08 00:32

Alternate Designations
 1976 SK3 = 1991 OJ 
Ephemeris | Orbit Diagram | Orbital Elements | Mission Design | Physical Parameters | Discovery Circumstances | Close-Approach Data ]
ABOUT SSD CREDITS/AWARDS PRIVACY/COPYRIGHT GLOSSARY LINKS
FirstGov 2021-Jul-29 04:07 UT
(server date/time)  
NASA Home Page
Site Manager:   Ryan S. Park
Webmaster  Alan B. Chamberlin